Meeker, CO

7:04 AM MDT on May 24, 2017 (GMT -0600)
Meeker

Weather History for KEEO - December, 2012

Change the Weather History Date:

Monday, December 31, 2012

  Actual Average Record
Temperature  
Mean Temperature 2 °F 20 °F  
Max Temperature 18 °F 33 °F 47 °F (2011)
Min Temperature -14 °F 7 °F -27 °F (2014)
Degree Days  
Heating Degree Days 63 46  
Month to date heating degree days 1386 1353  
Since 1 July heating degree days 3031 3289  
Cooling Degree Days 0 0  
Month to date cooling degree days 0 0  
Year to date cooling degree days 325 172  
Moisture  
Dew Point 4 °F    
Average Humidity 81    
Maximum Humidity 95    
Minimum Humidity 67    
Precipitation  
Precipitation 0.05 in 0.04 in 0.15 in (2002)
Month to date precipitation 1.35 1.11  
Year to date precipitation 9.16 16.06  
Sea Level Pressure  
Sea Level Pressure 30.03 in    
Wind  
Wind Speed 1 mph (NE)    
Max Wind Speed 7 mph    
Max Gust Speed 8 mph    
Visibility 5 miles    
Events Snow    
T = Trace of Precipitation, MM = Missing Value Source: NWS Daily Summary

Daily Weather History Graph

Daily Weather History Graph

Search for Another Location

Airport or City:

Trip Planner

Search our weather history database for the weather conditions in past years. The results will help you decide how hot, cold, wet, or windy it might be!

Date:

Astronomy

Dec. 31, 2012 Rise Set
Actual Time 7:33 AM MST 4:56 PM MST
Civil Twilight 7:03 AM MST 5:26 PM MST
Nautical Twilight 6:29 AM MST 6:00 PM MST
Astronomical Twilight 5:56 AM MST 6:33 PM MST
Moon 8:30 PM MST (12/31) 9:16 AM MST (12/31)
Length of Visible Light 10h 23m
Length of Day
9h 22m
Waning Gibbous, 90% of the Moon is Illuminated
Dec 31
Waning Gibbous
Jan 4
Last Quarter
Jan 11
New
Jan 18
First Quarter
Jan 26
Full

Hourly Weather History & Observations

Time (MST) Temp. Windchill Dew Point Humidity Pressure Visibility Wind Dir Wind Speed Gust Speed Precip Events Conditions
12:17 AM 10.4 °F - 8.6 °F 92% 29.87 in 2.0 mi Calm Calm - 0.00 in Snow Light Snow
12:38 AM 10.4 °F - 8.6 °F 92% 29.87 in 1.5 mi Calm Calm - 0.00 in Snow Light Snow
12:53 AM 12.0 °F - 8.1 °F 84% 30.07 in 1.2 mi Calm Calm - 0.00 in Snow Light Snow
1:43 AM 10.4 °F - 6.8 °F 85% 29.86 in 2.0 mi Calm Calm - 0.01 in Snow Light Snow
1:53 AM 10.0 °F - 7.0 °F 87% 30.06 in 3.0 mi Calm Calm - 0.01 in Snow Light Snow
2:09 AM 10.4 °F 4.0 °F 6.8 °F 85% 29.87 in 2.5 mi SW 3.5 mph - 0.01 in Snow Light Snow
2:21 AM 10.4 °F - 6.8 °F 85% 29.87 in 1.5 mi Calm Calm - 0.01 in Snow Light Snow
2:53 AM 10.9 °F 2.9 °F 7.0 °F 84% 30.07 in 1.5 mi SW 4.6 mph - 0.01 in Snow Light Snow
3:08 AM 10.4 °F 2.2 °F 6.8 °F 85% 29.87 in 2.5 mi WSW 4.6 mph - 0.01 in Snow Light Snow
3:14 AM 10.4 °F - 6.8 °F 85% 29.87 in 3.0 mi Calm Calm - 0.01 in Snow Light Snow
3:27 AM 10.4 °F - 6.8 °F 85% 29.87 in 2.0 mi Calm Calm - 0.01 in Snow Light Snow
3:39 AM 10.4 °F - 8.6 °F 92% 29.87 in 2.0 mi Calm Calm - 0.01 in Snow Light Snow
3:46 AM 10.4 °F - 6.8 °F 85% 29.87 in 1.5 mi Calm Calm - 0.01 in Snow Light Snow
3:53 AM 10.9 °F - 7.0 °F 84% 30.08 in 1.8 mi Calm Calm - 0.01 in Snow Light Snow
3:56 AM 10.4 °F - 6.8 °F 85% 29.87 in 2.0 mi Calm Calm - 0.00 in Snow Light Snow
4:16 AM 10.4 °F - 6.8 °F 85% 29.87 in 1.8 mi Calm Calm - 0.00 in Snow Light Snow
5:33 AM 10.4 °F - 6.8 °F 85% 29.88 in 2.0 mi Calm Calm - 0.00 in Snow Light Snow
5:53 AM 10.0 °F - 7.0 °F 87% 30.09 in 2.5 mi Calm Calm - 0.00 in Snow Light Snow
6:14 AM 10.4 °F 2.2 °F 6.8 °F 85% 29.89 in 4.0 mi NNE 4.6 mph - 0.00 in Snow Light Snow
6:53 AM 10.0 °F - 6.1 °F 84% 30.10 in 3.0 mi Calm Calm - 0.00 in Snow Light Snow
7:53 AM 8.1 °F - 3.9 °F 83% 30.12 in 2.5 mi Calm Calm - 0.00 in Snow Light Snow
8:08 AM 6.8 °F - 3.2 °F 85% 29.91 in 2.5 mi Calm Calm - 0.00 in Snow Light Snow
8:18 AM 6.8 °F - 3.2 °F 85% 29.91 in 4.0 mi Calm Calm - 0.00 in   Overcast
8:39 AM 6.8 °F - 3.2 °F 85% 29.92 in 10.0 mi Calm Calm - 0.01 in   Mostly Cloudy
8:53 AM 3.9 °F - 1.0 °F 88% 30.16 in 10.0 mi Calm Calm - 0.01 in   Scattered Clouds
9:53 AM 10.0 °F - 5.0 °F 80% 30.16 in 9.0 mi Calm Calm - N/A   Overcast
10:53 AM 12.0 °F - 6.1 °F 77% 30.17 in 10.0 mi Calm Calm - N/A   Overcast
11:53 AM 15.1 °F 9.4 °F 8.1 °F 74% 30.13 in 2.0 mi NE 3.5 mph - 0.00 in Snow Light Snow
12:05 PM 15.8 °F 8.6 °F 8.6 °F 73% 29.93 in 1.5 mi NE 4.6 mph - 0.00 in Snow Light Snow
12:16 PM 14.0 °F - 8.6 °F 79% 29.93 in 2.5 mi Calm Calm - 0.00 in   Haze
12:23 PM 14.0 °F 8.2 °F 6.8 °F 73% 29.93 in 4.0 mi NE 3.5 mph - 0.00 in   Haze
12:37 PM 15.8 °F 10.2 °F 8.6 °F 73% 29.93 in 10.0 mi NNE 3.5 mph - 0.00 in   Mostly Cloudy
12:53 PM 15.1 °F 9.4 °F 8.1 °F 74% 30.11 in 10.0 mi NE 3.5 mph - 0.00 in   Overcast
1:53 PM 18.0 °F - 9.0 °F 68% 30.11 in 10.0 mi Calm Calm - N/A   Overcast
2:13 PM 15.8 °F 10.2 °F 8.6 °F 73% 29.94 in 10.0 mi NE 3.5 mph - N/A   Overcast
2:21 PM 15.8 °F 10.2 °F 8.6 °F 73% 29.94 in 10.0 mi NE 3.5 mph - N/A   Overcast
2:53 PM 17.1 °F - 10.0 °F 74% 30.14 in 4.0 mi Calm Calm - 0.00 in Snow Light Snow
3:36 PM 15.8 °F 10.2 °F 8.6 °F 73% 29.96 in 4.0 mi ENE 3.5 mph - 0.00 in Snow Light Snow
3:53 PM 14.0 °F - 9.0 °F 80% 30.16 in 9.0 mi Calm Calm - 0.00 in   Scattered Clouds
4:53 PM 3.0 °F -4.4 °F 1.0 °F 91% 30.22 in 10.0 mi NNE 3.5 mph - N/A   Clear
6:53 PM -4.0 °F - -6.0 °F 91% 30.31 in 10.0 mi Calm Calm - N/A   Clear
7:53 PM -6.0 °F - -9.0 °F 87% 30.35 in 10.0 mi Calm Calm - N/A   Clear
8:53 PM -6.0 °F - -9.9 °F 83% 30.37 in 10.0 mi Calm Calm - N/A   Clear
9:53 PM -9.0 °F - -13.0 °F 83% 30.36 in 10.0 mi Calm Calm - N/A   Clear
10:53 PM -11.0 °F -20.4 °F -15.0 °F 83% 30.38 in 10.0 mi East 3.5 mph - N/A   Clear
11:53 PM -11.0 °F -20.4 °F -17.0 °F 75% 30.38 in 10.0 mi NNE 3.5 mph - N/A   Clear